Location: Brahman Valley
(40.6513°N, 111.8855°W)
Time: 08:59:21
(UTC+00:00)

Tiros 1 despin weight - Pass Details

Date: 18 May 2021
Orbit: 594 x 641 km, 48.2° (Epoch: 22 June)

Event Time Altitude Azimuth Distance (km) Brightness Sun altitude
Rises 07:36:01 0° 298° (WNW) 2,943 ? -29.7°
Reaches altitude 10° 07:38:22 10° 296° (WNW) 2,032 ? -29.6°
Enters shadow 07:39:16 16° 294° (WNW) 1,692 ? -29.6°
Maximum altitude 07:43:01 66° 214° (SW) 699 - -29.6°
Drops below altitude 10° 07:47:37 10° 133° (SE) 2,014 - -29.5°
Sets 07:49:56 0° 130° (SE) 2,914 - -29.4°
